Starlink 3299

operational
NORAD ID: 50831 Int'l Des: 2022-001 Owner: SPXS Country: US Constellation: starlink
LEOCIRCULAR

Starlink 3299について

説明を読み込み中...

リアルタイム位置

3D地球を読み込み中...

次回通過

高度履歴

Altitude vs Time

uPlot chart will show altitude changes over time

軌道要素

1 50831U 22001AE 25259.31838615 .00000649 00000-0 58841-4 0 9999
2 50831 53.2134 231.9718 0001500 87.3962 272.7202 15.08840884204081
Epoch: Sep 16, 2025 • Age: 15 hours

現在のステータス

高度 539.9 km
速度 7.59 km/s
衛星直下点 6.15°N, 67.79°E
打ち上げ日 Jan 6, 2022
運用期間 3.6 years
タイプ internet

技術仕様

分類 Payload
質量 297.00 kg
乾燥質量 275.00 kg
総質量 297.00 kg
長さ 0.20 m
直径 2.80 m
スパン 9.00 m
形状 Box + pan
製造者 SPXS
バスタイプ Starlink
フェーズステータス In Orbit
所有者/国 SPXS/US

大規模コンステレーション

Loading constellations...